When you browse on this site, cookies collect data to enhance your experience and personalize the content and advertising you see.
Visit our Privacy Policy to learn more. By continuing to use the site, you agree to this use of cookies and data.
  • In Lithuania
  • List of Countries
  • For 7 days
  • Water Temperature
  • Satellite Maps
  • Weather Map
  • Weather Widgets
  • user-avatar
    Login

    Hourly Weather Dalat

    Today, 22 January, Tuesday

    Time Temperature Precipitation Wind Pressure Humidity
    00:00 +16°C° 0 mm 1 mps 653 mmHg 95%
    01:00 +16°C° 0 mm 1 mps 654 mmHg 95%
    02:00 +16°C° 0 mm 1 mps 653 mmHg 94%
    03:00 +16°C° 0 mm 1 mps 653 mmHg 94%
    04:00 +16°C° 0 mm 1 mps 653 mmHg 94%
    05:00 +16°C° 0 mm 1 mps 653 mmHg 93%
    06:00 +16°C° 0 mm 1 mps 653 mmHg 92%
    07:00 +17°C° 0 mm 2 mps 654 mmHg 91%
    08:00 +18°C° 0 mm 2 mps 654 mmHg 85%
    09:00 +19°C° 0 mm 2 mps 655 mmHg 78%
    10:00 +21°C° 0 mm 3 mps 656 mmHg 71%
    11:00 +21°C° 0 mm 3 mps 655 mmHg 69%
    12:00 +21°C° 0 mm 3 mps 655 mmHg 68%
    13:00 +22°C° 0 mm 3 mps 655 mmHg 66%
    14:00 +21°C° 0 mm 3 mps 654 mmHg 68%
    15:00 +21°C° 0 mm 3 mps 654 mmHg 71%
    16:00 +20°C° 0 mm 3 mps 653 mmHg 73%
    17:00 +19°C° 0 mm 2 mps 653 mmHg 78%
    18:00 +17°C° 0 mm 2 mps 653 mmHg 84%
    19:00 +16°C° 0 mm 2 mps 653 mmHg 89%
    20:00 +16°C° 0 mm 2 mps 653 mmHg 91%
    21:00 +15°C° 0 mm 2 mps 654 mmHg 93%
    22:00 +15°C° 0 mm 2 mps 654 mmHg 95%
    23:00 +15°C° 0 mm 2 mps 654 mmHg 95%

    Tomorrow, 23 January, Wednesday

    Time Temperature Precipitation Wind Pressure Humidity
    00:00 +14°C° 0 mm 1 mps 654 mmHg 96%
    01:00 +14°C° 0 mm 1 mps 653 mmHg 96%
    02:00 +14°C° 0 mm 2 mps 653 mmHg 96%
    03:00 +14°C° 0 mm 2 mps 653 mmHg 95%
    04:00 +14°C° 0 mm 2 mps 652 mmHg 95%
    05:00 +14°C° 0 mm 2 mps 653 mmHg 94%
    06:00 +14°C° 0 mm 2 mps 653 mmHg 92%
    07:00 +15°C° 0 mm 2 mps 653 mmHg 91%
    08:00 +17°C° 0 mm 2 mps 654 mmHg 80%
    09:00 +19°C° 0 mm 2 mps 655 mmHg 70%
    10:00 +21°C° 0 mm 2 mps 656 mmHg 59%
    11:00 +23°C° 0 mm 2 mps 656 mmHg 55%
    12:00 +25°C° 0 mm 2 mps 656 mmHg 51%
    13:00 +26°C° 0 mm 2 mps 656 mmHg 46%
    14:00 +25°C° 0 mm 2 mps 655 mmHg 50%
    15:00 +24°C° 0 mm 2 mps 654 mmHg 53%
    16:00 +24°C° 0 mm 2 mps 654 mmHg 56%
    17:00 +20°C° 0 mm 2 mps 653 mmHg 68%
    18:00 +18°C° 0 mm 2 mps 653 mmHg 79%
    19:00 +16°C° 0 mm 1 mps 653 mmHg 90%
    20:00 +15°C° 0 mm 1 mps 653 mmHg 91%
    21:00 +14°C° 0 mm 1 mps 653 mmHg 93%
    22:00 +14°C° 0 mm 2 mps 653 mmHg 94%
    23:00 +13°C° 0 mm 1 mps 653 mmHg 94%

    Day after tomorrow, 24 January, Thursday

    Time Temperature Precipitation Wind Pressure Humidity
    00:00 +13°C° 0 mm 1 mps 652 mmHg 93%
    01:00 +12°C° 0 mm 1 mps 652 mmHg 93%
    02:00 +12°C° 0 mm 1 mps 652 mmHg 93%
    03:00 +12°C° 0 mm 1 mps 651 mmHg 92%
    04:00 +12°C° 0 mm 1 mps 651 mmHg 92%
    05:00 +12°C° 0 mm 1 mps 652 mmHg 90%
    06:00 +12°C° 0 mm 1 mps 652 mmHg 89%
    07:00 +13°C° 0 mm 1 mps 653 mmHg 87%
    08:00 +16°C° 0 mm 1 mps 654 mmHg 75%
    09:00 +19°C° 0 mm 1 mps 655 mmHg 62%
    10:00 +22°C° 0 mm 1 mps 657 mmHg 50%
    11:00 +23°C° 0 mm 1 mps 656 mmHg 46%
    12:00 +25°C° 0 mm 1 mps 656 mmHg 42%
    13:00 +26°C° 0 mm 1 mps 656 mmHg 38%
    14:00 +25°C° 0 mm 1 mps 655 mmHg 42%
    15:00 +24°C° 0 mm 1 mps 654 mmHg 45%
    16:00 +23°C° 0 mm 1 mps 654 mmHg 49%
    17:00 +21°C° 0 mm 1 mps 653 mmHg 62%
    18:00 +18°C° 0 mm 1 mps 653 mmHg 74%
    19:00 +15°C° 0 mm 1 mps 653 mmHg 86%
    20:00 +14°C° 0 mm 1 mps 653 mmHg 89%
    21:00 +14°C° 0 mm 1 mps 653 mmHg 92%
    22:00 +13°C° 0 mm 1 mps 653 mmHg 94%
    23:00 +13°C° 0 mm 1 mps 653 mmHg 93%

    25 January, Friday

    Time Temperature Precipitation Wind Pressure Humidity
    00:00 +12°C° 0 mm 1 mps 652 mmHg 92%
    01:00 +12°C° 0 mm 1 mps 652 mmHg 90%
    02:00 +12°C° 0 mm 1 mps 652 mmHg 88%
    03:00 +12°C° 0 mm 1 mps 651 mmHg 87%
    04:00 +12°C° 0 mm 1 mps 651 mmHg 85%
    05:00 +12°C° 0 mm 1 mps 652 mmHg 84%
    06:00 +13°C° 0 mm 1 mps 652 mmHg 83%
    07:00 +13°C° 0 mm 1 mps 653 mmHg 82%
    08:00 +18°C° 0 mm 1 mps 654 mmHg 70%
    09:00 +21°C° 0 mm 1 mps 656 mmHg 57%
    10:00 +25°C° 0 mm 1 mps 657 mmHg 45%
    11:00 +26°C° 0 mm 1 mps 657 mmHg 42%
    12:00 +27°C° 0 mm 1 mps 656 mmHg 38%
    13:00 +28°C° 0 mm 1 mps 656 mmHg 35%
    14:00 +27°C° 0 mm 1 mps 655 mmHg 40%
    15:00 +26°C° 0 mm 1 mps 655 mmHg 45%
    16:00 +25°C° 0 mm 2 mps 654 mmHg 49%
    17:00 +23°C° 0 mm 1 mps 654 mmHg 62%
    18:00 +20°C° 0 mm 1 mps 654 mmHg 76%
    19:00 +16°C° 0 mm 1 mps 654 mmHg 89%
    20:00 +16°C° 0 mm 1 mps 654 mmHg 90%
    21:00 +16°C° 0 mm 1 mps 654 mmHg 92%
    22:00 +15°C° 0 mm 2 mps 655 mmHg 94%
    23:00 +15°C° 0 mm 2 mps 654 mmHg 94%

    26 January, Saturday

    Time Temperature Precipitation Wind Pressure Humidity
    00:00 +15°C° 0 mm 2 mps 654 mmHg 93%
    01:00 +14°C° 0 mm 2 mps 653 mmHg 93%
    02:00 +14°C° 0 mm 2 mps 653 mmHg 93%
    03:00 +14°C° 0 mm 2 mps 653 mmHg 93%
    04:00 +14°C° 0 mm 2 mps 652 mmHg 93%
    05:00 +14°C° 0 mm 2 mps 653 mmHg 92%
    06:00 +14°C° 0 mm 2 mps 653 mmHg 90%
    07:00 +15°C° 0 mm 2 mps 654 mmHg 89%
    08:00 +17°C° 0 mm 2 mps 655 mmHg 77%
    09:00 +20°C° 0 mm 2 mps 656 mmHg 66%
    10:00 +23°C° 0 mm 2 mps 657 mmHg 55%
    11:00 +24°C° 0 mm 2 mps 657 mmHg 53%
    12:00 +25°C° 0 mm 2 mps 656 mmHg 51%
    13:00 +26°C° 0 mm 2 mps 656 mmHg 49%
    14:00 +25°C° 0 mm 2 mps 655 mmHg 54%
    15:00 +24°C° 0 mm 2 mps 655 mmHg 59%
    16:00 +23°C° 0 mm 2 mps 654 mmHg 63%
    17:00 +20°C° 0 mm 2 mps 654 mmHg 70%
    18:00 +18°C° 0 mm 2 mps 654 mmHg 76%
    19:00 +17°C° 0 mm 2 mps 654 mmHg 83%
    20:00 +16°C° 0 mm 2 mps 654 mmHg 84%
    21:00 +15°C° 0 mm 2 mps 655 mmHg 85%
    22:00 +15°C° 0 mm 2 mps 655 mmHg 86%
    23:00 +15°C° 0 mm 2 mps 654 mmHg 86%

    27 January, Sunday

    Time Temperature Precipitation Wind Pressure Humidity
    00:00 +14°C° 0 mm 2 mps 654 mmHg 86%
    01:00 +14°C° 0 mm 2 mps 654 mmHg 87%
    02:00 +14°C° 0 mm 2 mps 653 mmHg 86%
    03:00 +14°C° 0 mm 2 mps 653 mmHg 86%
    04:00 +14°C° 0 mm 2 mps 653 mmHg 85%
    05:00 +14°C° 0 mm 2 mps 653 mmHg 85%
    06:00 +15°C° 0 mm 2 mps 654 mmHg 85%
    07:00 +15°C° 0 mm 2 mps 654 mmHg 84%
    08:00 +17°C° 0 mm 3 mps 655 mmHg 76%
    09:00 +19°C° 0 mm 3 mps 656 mmHg 68%
    10:00 +20°C° 0 mm 3 mps 657 mmHg 60%
    11:00 +21°C° 0 mm 3 mps 656 mmHg 59%
    12:00 +21°C° 0 mm 3 mps 656 mmHg 59%
    13:00 +21°C° 0 mm 3 mps 655 mmHg 58%
    14:00 +21°C° 0 mm 3 mps 655 mmHg 62%
    15:00 +20°C° 0 mm 3 mps 654 mmHg 66%
    16:00 +19°C° 0 mm 3 mps 653 mmHg 69%
    17:00 +18°C° 0 mm 2 mps 654 mmHg 75%
    18:00 +17°C° 0 mm 2 mps 654 mmHg 80%
    19:00 +16°C° 0 mm 2 mps 654 mmHg 85%
    20:00 +16°C° 0 mm 2 mps 654 mmHg 86%
    21:00 +15°C° 0 mm 2 mps 654 mmHg 88%
    22:00 +15°C° 0 mm 2 mps 654 mmHg 89%
    23:00 +15°C° 0 mm 2 mps 654 mmHg 90%
    Show more